Oceanside, CA

1:41 AM PDT on March 27, 2017 (GMT -0700)
Oceanside Municipal

Weather History for KOKB - March, 2013

Change the Weather History Date:

Saturday, March 16, 2013

  Actual Average Record
Temperature  
Mean Temperature 57 °F 56 °F  
Max Temperature 62 °F 65 °F 91 °F (2015)
Min Temperature 52 °F 46 °F 38 °F (2008)
Degree Days  
Heating Degree Days 8 9  
Month to date heating degree days 120 159  
Since 1 July heating degree days 1518 1567  
Cooling Degree Days 0 0  
Month to date cooling degree days 0 0  
Year to date cooling degree days 0 0  
Growing Degree Days 8 (Base 50)    
Moisture  
Dew Point 51 °F    
Average Humidity 80    
Maximum Humidity 93    
Minimum Humidity 67    
Precipitation  
Precipitation 0.00 in 0.04 in 0.46 in (2003)
Month to date precipitation 0.10 1.64  
Year to date precipitation 1.74 7.36  
Since 1 July precipitation 5.58  
Snow  
Snow 0.00 in - - ()
Month to date snowfall 0.0  
Year to date snowfall 0.0  
Snow Depth 0.00 in    
Sea Level Pressure  
Sea Level Pressure 29.95 in    
Wind  
Wind Speed 3 mph (SW)    
Max Wind Speed 12 mph    
Max Gust Speed 15 mph    
Visibility 5 miles    
Events      
T = Trace of Precipitation, MM = Missing Value Source: NWS Daily Summary

Daily Weather History Graph

Daily Weather History Graph

Search for Another Location

Airport or City:

Trip Planner

Search our weather history database for the weather conditions in past years. The results will help you decide how hot, cold, wet, or windy it might be!

Date:

Astronomy

Mar. 16, 2013 Rise Set
Actual Time 6:57 AM PDT 6:58 PM PDT
Civil Twilight 6:33 AM PDT 7:23 PM PDT
Nautical Twilight 6:04 AM PDT 7:51 PM PDT
Astronomical Twilight 5:35 AM PDT 8:20 PM PDT
Moon 9:46 AM PDT (3/16) 11:54 PM PDT (3/16)
Length of Visible Light 12h 49m
Length of Day
12h 00m
Waxing Crescent, 24% of the Moon is Illuminated
Mar 16
Waxing Crescent
Mar 19
First Quarter
Mar 27
Full
Apr 2
Last Quarter
Apr 10
New

Hourly Weather History & Observations

Time (PDT) Temp. Dew Point Humidity Pressure Visibility Wind Dir Wind Speed Gust Speed Precip Events Conditions
12:52 AM 53.1 °F 50.0 °F 89% 29.96 in 5.0 mi Calm Calm - N/A   Overcast
1:52 AM 53.1 °F 51.1 °F 93% 29.97 in 3.0 mi Calm Calm - N/A   Overcast
2:11 AM 53.6 °F 51.8 °F 94% 29.97 in 2.5 mi Calm Calm - N/A   Overcast
2:52 AM 53.1 °F 52.0 °F 96% 29.96 in 2.0 mi SE 3.5 mph - N/A   Overcast
3:40 AM 53.6 °F 51.8 °F 94% 29.96 in 4.0 mi Calm Calm - N/A   Overcast
3:50 AM 53.6 °F 51.8 °F 94% 29.96 in 4.0 mi Calm Calm - N/A   Overcast
3:52 AM 54.0 °F 51.1 °F 90% 29.96 in 4.0 mi Calm Calm - N/A   Overcast
4:52 AM 54.0 °F 50.0 °F 86% 29.95 in 7.0 mi SW 3.5 mph - N/A   Overcast
5:52 AM 54.0 °F 50.0 °F 86% 29.94 in 5.0 mi Calm Calm - N/A   Overcast
6:16 AM 53.6 °F 51.8 °F 94% 29.94 in 4.0 mi East 5.8 mph - N/A   Overcast
6:52 AM 53.1 °F 51.1 °F 93% 29.94 in 4.0 mi ENE 3.5 mph - N/A   Overcast
7:52 AM 53.1 °F 50.0 °F 89% 29.96 in 4.0 mi Calm Calm - N/A   Overcast
8:43 AM 53.6 °F 50.0 °F 88% 29.97 in 4.0 mi Calm Calm - N/A   Overcast
8:52 AM 54.0 °F 50.0 °F 86% 29.97 in 4.0 mi Calm Calm - N/A   Overcast
9:52 AM 55.9 °F 50.0 °F 80% 29.97 in 4.0 mi Calm Calm - N/A   Haze
10:02 AM 55.4 °F 50.0 °F 82% 29.97 in 4.0 mi SW 4.6 mph - N/A   Haze
10:52 AM 57.0 °F 50.0 °F 77% 29.97 in 5.0 mi Variable 3.5 mph - N/A   Haze
11:05 AM 59.0 °F 50.0 °F 72% 29.97 in 6.0 mi Calm Calm - N/A   Haze
11:25 AM 59.0 °F 50.0 °F 72% 29.97 in 7.0 mi Variable 4.6 mph - N/A   Scattered Clouds
11:52 AM 60.1 °F 51.1 °F 72% 29.96 in 8.0 mi SW 9.2 mph - N/A   Clear
12:52 PM 62.1 °F 52.0 °F 70% 29.96 in 8.0 mi West 6.9 mph - N/A   Clear
1:52 PM 61.0 °F 51.1 °F 70% 29.94 in 8.0 mi West 5.8 mph - N/A   Partly Cloudy
2:34 PM 60.8 °F 51.8 °F 72% 29.92 in 8.0 mi WSW 6.9 mph - N/A   Mostly Cloudy
2:52 PM 61.0 °F 52.0 °F 72% 29.91 in 7.0 mi SSW 6.9 mph - N/A   Mostly Cloudy
3:52 PM 59.0 °F 52.0 °F 78% 29.91 in 6.0 mi WSW 8.1 mph - N/A   Haze
4:52 PM 57.9 °F 51.1 °F 78% 29.92 in 6.0 mi WSW 9.2 mph - N/A   Haze
5:52 PM 57.0 °F 50.0 °F 77% 29.93 in 6.0 mi West 4.6 mph - N/A   Haze
6:52 PM 55.9 °F 50.0 °F 80% 29.93 in 6.0 mi Calm Calm - N/A   Haze
7:52 PM 55.9 °F 50.0 °F 80% 29.92 in 7.0 mi Calm Calm - N/A   Overcast
8:52 PM 55.9 °F 50.0 °F 80% 29.94 in 7.0 mi Calm Calm - N/A   Overcast
9:52 PM 55.9 °F 50.0 °F 80% 29.96 in 7.0 mi Calm Calm - N/A   Overcast
10:52 PM 55.9 °F 51.1 °F 84% 29.96 in 7.0 mi Calm Calm - N/A   Overcast
11:52 PM 55.9 °F 51.1 °F 84% 29.96 in 6.0 mi Calm Calm - N/A   Haze